FDX411 LDPL-EPKT

Flight info

Callsign FDX411
Flight time 1h 5m
Altitude 35000
Route LDPL GIRDA DCT LEDVA DCT KATQA DCT UPLAV DCT OGDAS DCT BAVOK EPKT
Aircraft B738/M-VGDW/C

Departure

Time 2026-05-06 19:15
Airport Pula Airport (LDPL)

Arrival

Time 2026-05-06 20:20
Airport Katowice Wojciech Korfanty International Airport (EPKT)
Time Latitude Longitude Altitude Speed Heading
2026-05-06 18:36 44.89657 13.92522 225 ft 0 kts 315°
2026-05-06 19:08 44.89667 13.92501 226 ft 7 kts 295°
2026-05-06 19:08 44.89644 13.92465 225 ft 6 kts 191°
2026-05-06 19:08 44.89601 13.92454 225 ft 8 kts 204°
2026-05-06 19:09 44.89578 13.92348 225 ft 17 kts 266°
2026-05-06 19:09 44.89572 13.92150 225 ft 21 kts 268°
2026-05-06 19:09 44.89569 13.91946 225 ft 21 kts 268°
2026-05-06 19:09 44.89565 13.91748 225 ft 20 kts 268°
2026-05-06 19:10 44.89561 13.91556 223 ft 19 kts 268°
2026-05-06 19:10 44.89556 13.91347 220 ft 22 kts 268°
2026-05-06 19:10 44.89552 13.91207 216 ft 21 kts 267°
2026-05-06 19:10 44.89548 13.91000 216 ft 21 kts 269°
2026-05-06 19:11 44.89544 13.90798 223 ft 20 kts 268°
2026-05-06 19:11 44.89500 13.90558 217 ft 19 kts 227°
2026-05-06 19:11 44.89412 13.90427 221 ft 5 kts 226°
2026-05-06 19:11 44.89411 13.90426 221 ft 0 kts 226°
2026-05-06 19:14 44.89396 13.90404 222 ft 6 kts 226°
2026-05-06 19:14 44.89358 13.90375 224 ft 6 kts 188°
2026-05-06 19:14 44.89323 13.90412 223 ft 9 kts 111°
2026-05-06 19:14 44.89320 13.90573 218 ft 27 kts 88°
2026-05-06 19:15 44.89331 13.91215 222 ft 104 kts 88°
2026-05-06 19:15 44.89348 13.92517 447 ft 148 kts 93°
2026-05-06 19:15 44.89356 13.93992 1203 ft 152 kts 98°
2026-05-06 19:15 44.89364 13.95456 2136 ft 147 kts 96°
2026-05-06 19:16 44.89399 13.96996 2616 ft 173 kts 95°
2026-05-06 19:16 44.89428 13.98857 2944 ft 207 kts 94°
2026-05-06 19:16 44.89465 14.01022 3176 ft 237 kts 89°
2026-05-06 19:16 44.90065 14.03279 3613 ft 257 kts 53°
2026-05-06 19:17 44.91487 14.04819 4333 ft 263 kts 25°
2026-05-06 19:17 44.93169 14.05828 4844 ft 265 kts 19°
2026-05-06 19:17 44.94896 14.06726 5006 ft 266 kts 18°
2026-05-06 19:17 44.96641 14.07639 5023 ft 267 kts 19°
2026-05-06 19:18 44.98355 14.08562 5033 ft 267 kts 19°
2026-05-06 19:18 45.00102 14.09522 5411 ft 271 kts 19°
2026-05-06 19:18 45.01855 14.10493 6398 ft 271 kts 19°
2026-05-06 19:18 45.03661 14.11316 6775 ft 272 kts
2026-05-06 19:19 45.05599 14.11303 7025 ft 288 kts 353°
2026-05-06 19:19 45.07627 14.11150 7796 ft 294 kts 353°
2026-05-06 19:19 45.09684 14.11012 8698 ft 297 kts 353°
2026-05-06 19:19 45.11771 14.10887 9567 ft 302 kts 354°
2026-05-06 19:20 45.13890 14.10767 10333 ft 309 kts 354°
2026-05-06 19:20 45.16113 14.10640 10618 ft 333 kts 354°
2026-05-06 19:20 45.18483 14.10590 11114 ft 347 kts 359°
2026-05-06 19:20 45.20915 14.10782 11912 ft 352 kts
2026-05-06 19:21 45.23375 14.11051 12721 ft 357 kts
2026-05-06 19:21 45.25828 14.11326 13588 ft 359 kts
2026-05-06 19:21 45.28345 14.11593 14343 ft 365 kts
2026-05-06 19:21 45.30899 14.11848 15098 ft 370 kts
2026-05-06 19:22 45.33486 14.12095 15914 ft 374 kts
2026-05-06 19:22 45.36090 14.12338 16762 ft 377 kts
2026-05-06 19:22 45.38721 14.12581 17569 ft 381 kts
2026-05-06 19:22 45.41383 14.12825 18357 ft 385 kts
2026-05-06 19:23 45.44075 14.13072 19007 ft 390 kts
2026-05-06 19:23 45.46796 14.13381 19661 ft 396 kts
2026-05-06 19:23 45.49433 14.14643 20293 ft 407 kts 25°
2026-05-06 19:23 45.51953 14.16545 20955 ft 411 kts 26°
2026-05-06 19:24 45.54480 14.18510 21562 ft 416 kts 26°
2026-05-06 19:24 45.57038 14.20511 22150 ft 422 kts 26°
2026-05-06 19:24 45.59625 14.22529 22765 ft 426 kts 26°
2026-05-06 19:24 45.62205 14.24533 23369 ft 430 kts 26°
2026-05-06 19:25 45.64852 14.26580 23886 ft 434 kts 26°
2026-05-06 19:25 45.67525 14.28640 24402 ft 438 kts 26°
2026-05-06 19:25 45.70216 14.30711 24914 ft 441 kts 26°
2026-05-06 19:25 45.72930 14.32800 25418 ft 444 kts 26°
2026-05-06 19:26 45.75663 14.34902 25899 ft 447 kts 26°
2026-05-06 19:26 45.78417 14.37023 26366 ft 451 kts 26°
2026-05-06 19:26 45.81190 14.39161 26819 ft 455 kts 26°
2026-05-06 19:26 45.83988 14.41321 27288 ft 458 kts 26°
2026-05-06 19:27 45.86808 14.43501 27718 ft 462 kts 26°
2026-05-06 19:27 45.89650 14.45700 28151 ft 465 kts 26°
2026-05-06 19:27 45.92501 14.47909 28577 ft 468 kts 26°
2026-05-06 19:27 45.95378 14.50141 28999 ft 471 kts 26°
2026-05-06 19:28 45.98268 14.52386 29415 ft 474 kts 26°
2026-05-06 19:28 46.01179 14.54648 29811 ft 477 kts 25°
2026-05-06 19:28 46.04106 14.56928 30166 ft 480 kts 25°
2026-05-06 19:28 46.07014 14.59194 30500 ft 482 kts 25°
2026-05-06 19:29 46.09965 14.61498 30957 ft 481 kts 26°
2026-05-06 19:29 46.12900 14.63793 31489 ft 478 kts 26°
2026-05-06 19:29 46.15816 14.66077 31973 ft 477 kts 26°
2026-05-06 19:29 46.18734 14.68363 32402 ft 477 kts 26°
2026-05-06 19:30 46.21651 14.70651 32855 ft 476 kts 26°
2026-05-06 19:30 46.24547 14.72925 33350 ft 473 kts 26°
2026-05-06 19:30 46.27447 14.75205 33799 ft 472 kts 26°
2026-05-06 19:30 46.30331 14.77475 34146 ft 472 kts 26°
2026-05-06 19:31 46.33213 14.79745 34505 ft 471 kts 26°
2026-05-06 19:31 46.36085 14.82011 34875 ft 470 kts 26°
2026-05-06 19:31 46.41851 14.86568 34905 ft 471 kts 26°
2026-05-06 19:32 46.47554 14.91089 34878 ft 469 kts 26°
2026-05-06 19:32 46.53264 14.95625 34891 ft 467 kts 26°
2026-05-06 19:33 46.58968 15.00164 34875 ft 467 kts 26°
2026-05-06 19:33 46.64672 15.04716 34893 ft 468 kts 26°
2026-05-06 19:34 46.70383 15.09284 34882 ft 469 kts 26°
2026-05-06 19:34 46.76101 15.13870 34876 ft 469 kts 26°
2026-05-06 19:35 46.81825 15.18472 34880 ft 470 kts 26°
2026-05-06 19:35 46.87561 15.23095 34876 ft 471 kts 26°
2026-05-06 19:36 46.93302 15.27733 34885 ft 471 kts 26°
2026-05-06 19:36 46.98996 15.32345 34887 ft 471 kts 26°
2026-05-06 19:37 47.04735 15.37005 34885 ft 471 kts 26°
2026-05-06 19:37 47.09500 15.40883 34879 ft 471 kts 26°
2026-05-06 19:38 47.16197 15.46346 34877 ft 471 kts 26°
2026-05-06 19:38 47.21918 15.51026 34865 ft 470 kts 27°
2026-05-06 19:39 47.27617 15.55700 34859 ft 469 kts 27°
2026-05-06 19:39 47.33322 15.60389 34850 ft 469 kts 27°
2026-05-06 19:40 47.39020 15.65086 34846 ft 469 kts 27°
2026-05-06 19:40 47.44701 15.69779 34846 ft 468 kts 27°
2026-05-06 19:41 47.50350 15.74458 34841 ft 468 kts 27°
2026-05-06 19:41 47.56047 15.79189 34826 ft 469 kts 27°
2026-05-06 19:42 47.61736 15.83924 34823 ft 469 kts 27°
2026-05-06 19:42 47.67442 15.88685 34813 ft 470 kts 27°
2026-05-06 19:43 47.73150 15.93461 34794 ft 471 kts 27°
2026-05-06 19:43 47.78855 15.98246 34782 ft 471 kts 27°
2026-05-06 19:44 47.84567 16.03049 34776 ft 472 kts 27°
2026-05-06 19:44 47.90250 16.07841 34756 ft 472 kts 27°
2026-05-06 19:45 47.95957 16.12664 34771 ft 471 kts 27°
2026-05-06 19:45 48.01706 16.17536 34764 ft 471 kts 27°
2026-05-06 19:46 48.07371 16.22349 34761 ft 471 kts 27°
2026-05-06 19:46 48.13058 16.27193 34763 ft 469 kts 27°
2026-05-06 19:47 48.18726 16.32034 34763 ft 468 kts 27°
2026-05-06 19:47 48.24327 16.36829 34768 ft 467 kts 27°
2026-05-06 19:48 48.29972 16.41674 34763 ft 466 kts 27°
2026-05-06 19:48 48.35557 16.46480 34759 ft 466 kts 27°
2026-05-06 19:49 48.41183 16.51333 34757 ft 466 kts 27°
2026-05-06 19:49 48.46821 16.56210 34501 ft 470 kts 27°
2026-05-06 19:50 48.49656 16.58667 34265 ft 468 kts 27°
2026-05-06 19:50 48.52438 16.61082 34013 ft 468 kts 27°
2026-05-06 19:50 48.55293 16.63563 33787 ft 468 kts 27°
2026-05-06 19:50 48.58086 16.65993 33532 ft 469 kts 27°
2026-05-06 19:51 48.60916 16.68459 33258 ft 470 kts 27°
2026-05-06 19:51 48.63743 16.70925 32995 ft 470 kts 27°
2026-05-06 19:51 48.66565 16.73390 32794 ft 466 kts 27°
2026-05-06 19:51 48.69362 16.75838 32747 ft 460 kts 27°
2026-05-06 19:52 48.74589 16.81331 32745 ft 460 kts 42°
2026-05-06 19:52 48.79084 16.88303 32755 ft 464 kts 45°
2026-05-06 19:53 48.83563 16.95393 32759 ft 466 kts 45°
2026-05-06 19:53 48.88087 17.02467 32754 ft 467 kts 44°
2026-05-06 19:54 48.92611 17.09511 32755 ft 465 kts 44°
2026-05-06 19:54 48.97092 17.16504 32753 ft 462 kts 44°
2026-05-06 19:55 49.01596 17.23438 32753 ft 459 kts 40°
2026-05-06 19:55 49.06797 17.28914 32773 ft 453 kts 28°
2026-05-06 19:56 49.12211 17.33873 32410 ft 453 kts 28°
2026-05-06 19:56 49.14893 17.36359 31922 ft 450 kts 28°
2026-05-06 19:56 49.17555 17.38854 31471 ft 447 kts 29°
2026-05-06 19:57 49.20195 17.41347 31063 ft 444 kts 29°
2026-05-06 19:57 49.22810 17.43827 30645 ft 441 kts 29°
2026-05-06 19:57 49.24532 17.45462 30382 ft 440 kts 29°
2026-05-06 19:57 49.27120 17.47922 29974 ft 437 kts 29°
2026-05-06 19:58 49.29700 17.50376 29524 ft 435 kts 29°
2026-05-06 19:58 49.32257 17.52827 29070 ft 433 kts 31°
2026-05-06 19:58 49.34705 17.55498 28627 ft 431 kts 35°
2026-05-06 19:58 49.37083 17.58278 28195 ft 428 kts 36°
2026-05-06 19:59 49.39426 17.61079 27777 ft 425 kts 36°
2026-05-06 19:59 49.41755 17.63872 27351 ft 423 kts 36°
2026-05-06 19:59 49.44073 17.66640 26934 ft 421 kts 36°
2026-05-06 19:59 49.46381 17.69383 26519 ft 419 kts 36°
2026-05-06 20:00 49.48688 17.72114 26111 ft 417 kts 36°
2026-05-06 20:00 49.50983 17.74828 25704 ft 415 kts 36°
2026-05-06 20:00 49.53241 17.77499 25303 ft 413 kts 36°
2026-05-06 20:00 49.55520 17.80198 24904 ft 412 kts 37°
2026-05-06 20:01 49.57784 17.82880 24506 ft 410 kts 37°
2026-05-06 20:01 49.60037 17.85555 24095 ft 409 kts 37°
2026-05-06 20:01 49.62290 17.88232 23694 ft 407 kts 37°
2026-05-06 20:01 49.64533 17.90901 23268 ft 407 kts 37°
2026-05-06 20:02 49.66774 17.93569 22796 ft 405 kts 37°
2026-05-06 20:02 49.69000 17.96222 22368 ft 403 kts 37°
2026-05-06 20:02 49.71331 17.98592 21938 ft 400 kts 26°
2026-05-06 20:02 49.73825 18.00448 21558 ft 396 kts 23°
2026-05-06 20:03 49.76296 18.02195 21150 ft 394 kts 23°
2026-05-06 20:03 49.78783 18.03945 20747 ft 392 kts 23°
2026-05-06 20:03 49.81252 18.05697 20351 ft 390 kts 23°
2026-05-06 20:03 49.83706 18.07457 19947 ft 388 kts 24°
2026-05-06 20:04 49.86147 18.09222 19549 ft 385 kts 24°
2026-05-06 20:04 49.88548 18.10966 19155 ft 377 kts 24°
2026-05-06 20:04 49.90896 18.12676 18774 ft 370 kts 24°
2026-05-06 20:04 49.93235 18.14381 18411 ft 371 kts 24°
2026-05-06 20:05 49.95579 18.16090 18020 ft 373 kts 24°
2026-05-06 20:05 49.97900 18.17785 17600 ft 374 kts 24°
2026-05-06 20:05 50.00143 18.19817 17157 ft 375 kts 41°
2026-05-06 20:05 50.01841 18.22783 16852 ft 361 kts 56°
2026-05-06 20:06 50.03120 18.26058 16586 ft 349 kts 64°
2026-05-06 20:06 50.04220 18.29396 16341 ft 347 kts 65°
2026-05-06 20:06 50.05299 18.32771 16089 ft 350 kts 66°
2026-05-06 20:06 50.06384 18.36186 15833 ft 352 kts 66°
2026-05-06 20:07 50.07470 18.39595 15593 ft 350 kts 66°
2026-05-06 20:07 50.08550 18.42971 15342 ft 348 kts 66°
2026-05-06 20:07 50.09628 18.46335 15096 ft 346 kts 65°
2026-05-06 20:07 50.10703 18.49682 14875 ft 345 kts 66°
2026-05-06 20:08 50.11778 18.53028 14800 ft 345 kts 66°
2026-05-06 20:08 50.12837 18.56326 14786 ft 344 kts 66°
2026-05-06 20:08 50.13907 18.59660 14782 ft 344 kts 66°
2026-05-06 20:08 50.14980 18.63008 14774 ft 337 kts 66°
2026-05-06 20:09 50.15997 18.66178 14763 ft 324 kts 66°
2026-05-06 20:09 50.16984 18.69256 14716 ft 310 kts 66°
2026-05-06 20:09 50.17948 18.72272 14551 ft 309 kts 66°
2026-05-06 20:09 50.18910 18.75291 14263 ft 313 kts 66°
2026-05-06 20:10 50.19899 18.78408 13595 ft 330 kts 66°
2026-05-06 20:10 50.20928 18.81651 13059 ft 334 kts 66°
2026-05-06 20:10 50.21939 18.84828 12787 ft 326 kts 66°
2026-05-06 20:10 50.22928 18.87934 12629 ft 314 kts 67°
2026-05-06 20:11 50.23895 18.90978 12321 ft 311 kts 67°
2026-05-06 20:11 50.24857 18.94019 12088 ft 312 kts 67°
2026-05-06 20:11 50.25817 18.97053 11928 ft 310 kts 67°
2026-05-06 20:11 50.26767 19.00063 11751 ft 309 kts 67°
2026-05-06 20:12 50.27716 19.03071 11570 ft 308 kts 67°
2026-05-06 20:12 50.28660 19.06067 11392 ft 307 kts 68°
2026-05-06 20:12 50.29603 19.09066 11126 ft 308 kts 68°
2026-05-06 20:12 50.30543 19.12055 10677 ft 305 kts 68°
2026-05-06 20:13 50.31474 19.15021 10191 ft 303 kts 68°
2026-05-06 20:13 50.32399 19.17968 9717 ft 301 kts 68°
2026-05-06 20:13 50.33306 19.20866 9188 ft 300 kts 68°
2026-05-06 20:13 50.34221 19.23791 8648 ft 299 kts 68°
2026-05-06 20:14 50.35135 19.26715 8094 ft 298 kts 68°
2026-05-06 20:14 50.36047 19.29637 7514 ft 299 kts 67°
2026-05-06 20:14 50.36959 19.32565 6908 ft 301 kts 67°
2026-05-06 20:14 50.37974 19.35418 6422 ft 300 kts 52°
2026-05-06 20:15 50.39582 19.37410 6049 ft 293 kts 24°
2026-05-06 20:15 50.41491 19.38183 5711 ft 276 kts
2026-05-06 20:15 50.43366 19.38292 5302 ft 263 kts 357°
2026-05-06 20:15 50.45109 19.37907 4865 ft 245 kts 332°
2026-05-06 20:16 50.46420 19.36418 4435 ft 225 kts 303°
2026-05-06 20:16 50.47191 19.34418 4016 ft 210 kts 285°
2026-05-06 20:16 50.47461 19.32262 3759 ft 194 kts 270°
2026-05-06 20:16 50.47556 19.30236 3504 ft 175 kts 266°
2026-05-06 20:17 50.47578 19.28422 3288 ft 158 kts 264°
2026-05-06 20:17 50.47580 19.26750 3114 ft 148 kts 263°
2026-05-06 20:17 50.47578 19.25069 2910 ft 158 kts 263°
2026-05-06 20:17 50.47578 19.23338 2682 ft 158 kts 264°
2026-05-06 20:18 50.47580 19.21605 2483 ft 160 kts 265°
2026-05-06 20:18 50.47582 19.19861 2268 ft 159 kts 265°
2026-05-06 20:18 50.47583 19.18116 2056 ft 161 kts 265°
2026-05-06 20:18 50.47586 19.16372 1845 ft 161 kts 266°
2026-05-06 20:19 50.47588 19.14571 1640 ft 167 kts 267°
2026-05-06 20:19 50.47591 19.12765 1378 ft 164 kts 267°
2026-05-06 20:19 50.47587 19.10974 1187 ft 167 kts 268°
2026-05-06 20:19 50.47601 19.09209 1019 ft 159 kts 268°
2026-05-06 20:20 50.47594 19.07636 986 ft 121 kts 270°
2026-05-06 20:20 50.47600 19.06649 982 ft 59 kts 270°
2026-05-06 20:20 50.47600 19.06219 982 ft 34 kts 270°
2026-05-06 20:20 50.47577 19.05995 986 ft 13 kts 216°
2026-05-06 20:21 50.47490 19.05972 987 ft 12 kts 185°
2026-05-06 20:21 50.47424 19.06026 984 ft 12 kts 106°
2026-05-06 20:21 50.47418 19.06157 987 ft 12 kts 89°
2026-05-06 20:21 50.47419 19.06299 984 ft 15 kts 89°
2026-05-06 20:22 50.47419 19.06482 984 ft 18 kts 91°
2026-05-06 20:22 50.47422 19.06675 988 ft 17 kts 88°
2026-05-06 20:22 50.47426 19.06875 985 ft 20 kts 88°
2026-05-06 20:22 50.47427 19.07095 982 ft 20 kts 90°
2026-05-06 20:23 50.47427 19.07313 982 ft 20 kts 90°
2026-05-06 20:23 50.47427 19.07523 982 ft 19 kts 90°
2026-05-06 20:23 50.47426 19.07728 982 ft 18 kts 90°
2026-05-06 20:23 50.47426 19.07924 985 ft 18 kts 90°
2026-05-06 20:24 50.47424 19.08114 988 ft 17 kts 90°
2026-05-06 20:24 50.47423 19.08297 985 ft 16 kts 90°
2026-05-06 20:24 50.47423 19.08474 981 ft 16 kts 90°
2026-05-06 20:24 50.47367 19.08585 979 ft 15 kts 188°
2026-05-06 20:25 50.47267 19.08586 979 ft 13 kts 171°
2026-05-06 20:25 50.47232 19.08701 987 ft 13 kts 90°
2026-05-06 20:25 50.47232 19.08839 987 ft 12 kts 92°
2026-05-06 20:25 50.47174 19.08886 981 ft 9 kts 189°
2026-05-06 20:26 50.47140 19.08884 988 ft 0 kts 180°